Time,TemperatureF,DewpointF,PressureIn,WindDirection,WindDirectionDegrees,WindSpeedMPH,WindSpeedGustMPH,Humidity,HourlyPrecipIn,Conditions,Clouds,dailyrainin,SoftwareType,DateUTC
2013-02-04 00:02:00,37.0,35.0,-100.00,SSW,210,14.0,21.0,93,-99.99,,,-99.99,,2013-02-04 09:02:00,
2013-02-04 00:11:00,37.0,35.0,-100.00,SSW,210,14.0,21.0,93,-99.99,,,-99.99,,2013-02-04 09:11:00,
2013-02-04 00:21:00,36.0,35.0,-100.00,SW,220,11.0,21.0,94,-99.99,,,-99.99,,2013-02-04 09:21:00,
2013-02-04 00:31:00,36.0,35.0,-100.00,SW,220,11.0,21.0,94,-99.99,,,-99.99,,2013-02-04 09:31:00,
2013-02-04 00:41:00,36.0,35.0,-100.00,SW,220,11.0,21.0,94,-99.99,,,-99.99,,2013-02-04 09:41:00,
2013-02-04 00:51:00,36.0,35.0,-100.00,South,175,12.0,20.0,94,-99.99,,,-99.99,,2013-02-04 09:51:00,
2013-02-04 01:01:00,36.0,35.0,-100.00,South,175,12.0,20.0,94,-99.99,,,-99.99,,2013-02-04 10:01:00,
2013-02-04 01:11:00,36.0,35.0,-100.00,South,175,12.0,20.0,94,-99.99,,,-99.99,,2013-02-04 10:11:00,
2013-02-04 01:21:00,36.0,35.0,-100.00,South,185,9.0,20.0,94,-99.99,,,-99.99,,2013-02-04 10:21:00,
2013-02-04 01:32:00,36.0,35.0,-100.00,South,185,9.0,20.0,94,-99.99,,,-99.99,,2013-02-04 10:32:00,
2013-02-04 01:41:00,36.0,35.0,-100.00,South,185,9.0,20.0,94,-99.99,,,-99.99,,2013-02-04 10:41:00,
2013-02-04 01:51:00,36.0,35.0,-100.00,SSW,210,14.0,20.0,95,-99.99,,,-99.99,,2013-02-04 10:51:00,
2013-02-04 02:01:00,36.0,35.0,-100.00,SSW,210,14.0,20.0,95,-99.99,,,-99.99,,2013-02-04 11:01:00,
2013-02-04 02:11:00,36.0,35.0,-100.00,SSW,210,14.0,20.0,95,-99.99,,,-99.99,,2013-02-04 11:11:00,
2013-02-04 02:22:00,36.0,35.0,-100.00,SW,225,14.0,18.0,95,-99.99,,,-99.99,,2013-02-04 11:22:00,
2013-02-04 02:32:00,36.0,35.0,-100.00,SW,225,14.0,18.0,95,-99.99,,,-99.99,,2013-02-04 11:32:00,
2013-02-04 02:42:00,36.0,35.0,-100.00,SW,225,14.0,18.0,95,-99.99,,,-99.99,,2013-02-04 11:42:00,
2013-02-04 02:52:00,36.0,35.0,-100.00,SSW,210,9.0,19.0,95,-99.99,,,-99.99,,2013-02-04 11:52:00,
2013-02-04 03:02:00,36.0,35.0,-100.00,SSW,210,9.0,19.0,95,-99.99,,,-99.99,,2013-02-04 12:02:00,
2013-02-04 03:12:00,36.0,35.0,-100.00,SSW,210,9.0,19.0,95,-99.99,,,-99.99,,2013-02-04 12:12:00,
2013-02-04 03:21:00,36.0,35.0,-100.00,SSW,200,13.0,26.0,95,-99.99,,,-99.99,,2013-02-04 12:21:00,
2013-02-04 03:32:00,36.0,35.0,-100.00,SSW,200,13.0,26.0,95,-99.99,,,-99.99,,2013-02-04 12:32:00,
2013-02-04 03:42:00,36.0,35.0,-100.00,SSW,200,13.0,26.0,95,-99.99,,,-99.99,,2013-02-04 12:42:00,
2013-02-04 03:52:00,36.0,35.0,-100.00,SSW,205,12.0,21.0,96,-99.99,,,-99.99,,2013-02-04 12:52:00,
2013-02-04 04:02:00,36.0,35.0,-100.00,SSW,205,12.0,21.0,96,-99.99,,,-99.99,,2013-02-04 13:02:00,
2013-02-04 04:11:00,36.0,35.0,-100.00,SSW,205,12.0,21.0,96,-99.99,,,-99.99,,2013-02-04 13:11:00,
2013-02-04 04:21:00,35.0,34.0,-100.00,SSW,205,10.0,19.0,95,-99.99,,,-99.99,,2013-02-04 13:21:00,
2013-02-04 04:32:00,35.0,34.0,-100.00,SSW,205,10.0,19.0,95,-99.99,,,-99.99,,2013-02-04 13:32:00,
2013-02-04 04:42:00,35.0,34.0,-100.00,SSW,205,10.0,19.0,95,-99.99,,,-99.99,,2013-02-04 13:42:00,
2013-02-04 04:51:00,35.0,34.0,-100.00,South,185,8.0,19.0,96,-99.99,,,-99.99,,2013-02-04 13:51:00,
2013-02-04 05:02:00,35.0,34.0,-100.00,South,185,8.0,19.0,96,-99.99,,,-99.99,,2013-02-04 14:02:00,
2013-02-04 05:11:00,35.0,34.0,-100.00,South,185,8.0,19.0,96,-99.99,,,-99.99,,2013-02-04 14:11:00,
2013-02-04 05:21:00,35.0,34.0,-100.00,SSE,160,10.0,16.0,96,-99.99,,,-99.99,,2013-02-04 14:21:00,
2013-02-04 05:32:00,35.0,34.0,-100.00,SSE,160,10.0,16.0,96,-99.99,,,-99.99,,2013-02-04 14:32:00,
2013-02-04 05:42:00,35.0,34.0,-100.00,SSE,160,10.0,16.0,96,-99.99,,,-99.99,,2013-02-04 14:42:00,
2013-02-04 05:52:00,34.0,33.0,-100.00,SSE,165,8.0,19.0,97,-99.99,,,-99.99,,2013-02-04 14:52:00,
2013-02-04 06:03:00,34.0,33.0,-100.00,SSE,165,8.0,19.0,97,-99.99,,,-99.99,,2013-02-04 15:03:00,
2013-02-04 06:12:00,34.0,33.0,-100.00,SSE,165,8.0,19.0,97,-99.99,,,-99.99,,2013-02-04 15:12:00,
2013-02-04 06:23:00,35.0,35.0,-100.00,SSE,165,6.0,12.0,97,-99.99,,,-99.99,,2013-02-04 15:23:00,
2013-02-04 06:33:00,35.0,35.0,-100.00,SSE,165,6.0,12.0,97,-99.99,,,-99.99,,2013-02-04 15:33:00,
2013-02-04 06:43:00,35.0,35.0,-100.00,SSE,165,6.0,12.0,97,-99.99,,,-99.99,,2013-02-04 15:43:00,
2013-02-04 06:52:00,36.0,35.0,-100.00,South,180,10.0,20.0,97,-99.99,,,-99.99,,2013-02-04 15:52:00,
2013-02-04 07:02:00,36.0,35.0,-100.00,South,180,10.0,20.0,97,-99.99,,,-99.99,,2013-02-04 16:02:00,
2013-02-04 07:11:00,36.0,35.0,-100.00,South,180,10.0,20.0,97,-99.99,,,-99.99,,2013-02-04 16:11:00,
2013-02-04 07:22:00,36.0,35.0,-100.00,SSE,165,12.0,16.0,94,-99.99,,,-99.99,,2013-02-04 16:22:00,
2013-02-04 07:32:00,36.0,35.0,-100.00,SSE,165,12.0,16.0,94,-99.99,,,-99.99,,2013-02-04 16:32:00,
2013-02-04 07:42:00,36.0,35.0,-100.00,SSE,165,12.0,16.0,94,-99.99,,,-99.99,,2013-02-04 16:42:00,
2013-02-04 07:51:00,36.0,35.0,-100.00,South,175,13.0,21.0,94,-99.99,,,-99.99,,2013-02-04 16:51:00,
2013-02-04 08:02:00,36.0,35.0,-100.00,South,175,13.0,21.0,94,-99.99,,,-99.99,,2013-02-04 17:02:00,
2013-02-04 08:11:00,36.0,35.0,-100.00,South,175,13.0,21.0,94,-99.99,,,-99.99,,2013-02-04 17:11:00,
2013-02-04 08:21:00,36.0,35.0,-100.00,SSW,210,12.0,19.0,95,-99.99,,,-99.99,,2013-02-04 17:21:00,
2013-02-04 08:31:00,36.0,35.0,-100.00,SSW,210,12.0,19.0,95,-99.99,,,-99.99,,2013-02-04 17:31:00,
2013-02-04 08:42:00,36.0,35.0,-100.00,SSW,210,12.0,19.0,95,-99.99,,,-99.99,,2013-02-04 17:42:00,
2013-02-04 08:51:00,37.0,36.0,-100.00,South,185,11.0,16.0,96,-99.99,,,-99.99,,2013-02-04 17:51:00,
2013-02-04 09:03:00,37.0,36.0,-100.00,South,185,11.0,16.0,96,-99.99,,,-99.99,,2013-02-04 18:03:00,
2013-02-04 09:11:00,37.0,36.0,-100.00,South,185,11.0,16.0,96,-99.99,,,-99.99,,2013-02-04 18:11:00,
2013-02-04 09:21:00,37.0,35.0,-100.00,SSW,200,14.0,21.0,93,-99.99,,,-99.99,,2013-02-04 18:21:00,
2013-02-04 09:31:00,37.0,35.0,-100.00,SSW,200,14.0,21.0,93,-99.99,,,-99.99,,2013-02-04 18:31:00,
2013-02-04 09:41:00,37.0,35.0,-100.00,SSW,200,14.0,21.0,93,-99.99,,,-99.99,,2013-02-04 18:41:00,
2013-02-04 09:52:00,37.0,36.0,-100.00,South,175,12.0,26.0,93,-99.99,,,-99.99,,2013-02-04 18:52:00,
2013-02-04 10:02:00,37.0,36.0,-100.00,South,175,12.0,26.0,93,-99.99,,,-99.99,,2013-02-04 19:02:00,
2013-02-04 10:11:00,37.0,36.0,-100.00,South,175,12.0,26.0,93,-99.99,,,-99.99,,2013-02-04 19:11:00,
2013-02-04 10:21:00,38.0,36.0,-100.00,South,190,15.0,21.0,94,-99.99,,,-99.99,,2013-02-04 19:21:00,
2013-02-04 10:31:00,38.0,36.0,-100.00,South,190,15.0,21.0,94,-99.99,,,-99.99,,2013-02-04 19:31:00,
2013-02-04 10:41:00,38.0,36.0,-100.00,South,190,15.0,21.0,94,-99.99,,,-99.99,,2013-02-04 19:41:00,
2013-02-04 10:51:00,38.0,36.0,-100.00,SW,225,14.0,23.0,91,-99.99,,,-99.99,,2013-02-04 19:51:00,
2013-02-04 11:02:00,38.0,36.0,-100.00,SW,225,14.0,23.0,91,-99.99,,,-99.99,,2013-02-04 20:02:00,
2013-02-04 11:11:00,38.0,36.0,-100.00,SW,225,14.0,23.0,91,-99.99,,,-99.99,,2013-02-04 20:11:00,
2013-02-04 11:21:00,38.0,35.0,-100.00,SW,220,12.0,19.0,91,-99.99,,,-99.99,,2013-02-04 20:21:00,
2013-02-04 11:32:00,38.0,35.0,-100.00,SW,220,12.0,19.0,91,-99.99,,,-99.99,,2013-02-04 20:32:00,
2013-02-04 11:42:00,38.0,35.0,-100.00,SW,220,12.0,19.0,91,-99.99,,,-99.99,,2013-02-04 20:42:00,
2013-02-04 11:52:00,38.0,35.0,-100.00,South,185,11.0,19.0,90,-99.99,,,-99.99,,2013-02-04 20:52:00,
2013-02-04 12:02:00,38.0,35.0,-100.00,South,185,11.0,19.0,90,-99.99,,,-99.99,,2013-02-04 21:02:00,
2013-02-04 12:11:00,38.0,35.0,-100.00,South,185,11.0,19.0,90,-99.99,,,-99.99,,2013-02-04 21:11:00,
2013-02-04 12:22:00,38.0,36.0,-100.00,SW,215,19.0,25.0,92,-99.99,,,-99.99,,2013-02-04 21:22:00,
2013-02-04 12:31:00,38.0,36.0,-100.00,SW,215,19.0,25.0,92,-99.99,,,-99.99,,2013-02-04 21:31:00,
2013-02-04 12:42:00,38.0,36.0,-100.00,SW,215,19.0,25.0,92,-99.99,,,-99.99,,2013-02-04 21:42:00,
2013-02-04 12:51:00,38.0,36.0,-100.00,SSE,160,12.0,24.0,92,-99.99,,,-99.99,,2013-02-04 21:51:00,
2013-02-04 13:02:00,38.0,36.0,-100.00,SSE,160,12.0,24.0,92,-99.99,,,-99.99,,2013-02-04 22:02:00,
2013-02-04 13:12:00,38.0,36.0,-100.00,SSE,160,12.0,24.0,92,-99.99,,,-99.99,,2013-02-04 22:12:00,
2013-02-04 13:21:00,38.0,35.0,-100.00,South,180,14.0,24.0,91,-99.99,,,-99.99,,2013-02-04 22:21:00,
2013-02-04 13:32:00,38.0,35.0,-100.00,South,180,14.0,24.0,91,-99.99,,,-99.99,,2013-02-04 22:32:00,
2013-02-04 13:41:00,38.0,35.0,-100.00,South,180,14.0,24.0,91,-99.99,,,-99.99,,2013-02-04 22:41:00,
2013-02-04 13:51:00,38.0,35.0,-100.00,South,185,12.0,22.0,89,-99.99,,,-99.99,,2013-02-04 22:51:00,
2013-02-04 14:01:00,38.0,35.0,-100.00,South,185,12.0,22.0,89,-99.99,,,-99.99,,2013-02-04 23:01:00,
2013-02-04 14:11:00,38.0,35.0,-100.00,South,185,12.0,22.0,89,-99.99,,,-99.99,,2013-02-04 23:11:00,
2013-02-04 14:21:00,38.0,35.0,-100.00,South,170,9.0,17.0,87,-99.99,,,-99.99,,2013-02-04 23:21:00,
2013-02-04 14:32:00,38.0,35.0,-100.00,South,170,9.0,17.0,87,-99.99,,,-99.99,,2013-02-04 23:32:00,
2013-02-04 14:41:00,38.0,35.0,-100.00,South,170,9.0,17.0,87,-99.99,,,-99.99,,2013-02-04 23:41:00,
2013-02-04 14:52:00,38.0,34.0,-100.00,South,180,8.0,16.0,85,-99.99,,,-99.99,,2013-02-04 23:52:00,
2013-02-04 15:01:00,38.0,34.0,-100.00,South,180,8.0,16.0,85,-99.99,,,-99.99,,2013-02-05 00:01:00,
2013-02-04 15:11:00,38.0,34.0,-100.00,South,180,8.0,16.0,85,-99.99,,,-99.99,,2013-02-05 00:11:00,
2013-02-04 15:21:00,38.0,35.0,-100.00,South,170,10.0,22.0,86,-99.99,,,-99.99,,2013-02-05 00:21:00,
2013-02-04 15:31:00,38.0,35.0,-100.00,South,170,10.0,22.0,86,-99.99,,,-99.99,,2013-02-05 00:31:00,
2013-02-04 15:41:00,38.0,35.0,-100.00,South,170,10.0,22.0,86,-99.99,,,-99.99,,2013-02-05 00:41:00,
2013-02-04 15:51:00,38.0,34.0,-100.00,South,185,7.0,16.0,86,-99.99,,,-99.99,,2013-02-05 00:51:00,
2013-02-04 16:01:00,38.0,34.0,-100.00,South,185,7.0,16.0,86,-99.99,,,-99.99,,2013-02-05 01:01:00,
2013-02-04 16:11:00,38.0,34.0,-100.00,South,185,7.0,16.0,86,-99.99,,,-99.99,,2013-02-05 01:11:00,
2013-02-04 16:21:00,38.0,34.0,-100.00,SSW,205,7.0,13.0,86,-99.99,,,-99.99,,2013-02-05 01:21:00,
2013-02-04 16:32:00,38.0,34.0,-100.00,SSW,205,7.0,13.0,86,-99.99,,,-99.99,,2013-02-05 01:32:00,
2013-02-04 16:42:00,38.0,34.0,-100.00,SSW,205,7.0,13.0,86,-99.99,,,-99.99,,2013-02-05 01:42:00,
2013-02-04 16:51:00,38.0,34.0,-100.00,South,175,7.0,20.0,86,-99.99,,,-99.99,,2013-02-05 01:51:00,
2013-02-04 17:01:00,38.0,34.0,-100.00,South,175,7.0,20.0,86,-99.99,,,-99.99,,2013-02-05 02:01:00,
2013-02-04 17:11:00,38.0,34.0,-100.00,South,175,7.0,20.0,86,-99.99,,,-99.99,,2013-02-05 02:11:00,
2013-02-04 17:21:00,38.0,34.0,-100.00,SE,140,6.0,13.0,85,-99.99,,,-99.99,,2013-02-05 02:21:00,
2013-02-04 17:31:00,38.0,34.0,-100.00,SE,140,6.0,13.0,85,-99.99,,,-99.99,,2013-02-05 02:31:00,
2013-02-04 17:41:00,38.0,34.0,-100.00,SE,140,6.0,13.0,85,-99.99,,,-99.99,,2013-02-05 02:41:00,
2013-02-04 17:52:00,37.0,33.0,-100.00,South,190,4.0,13.0,86,-99.99,,,-99.99,,2013-02-05 02:52:00,
2013-02-04 18:01:00,37.0,33.0,-100.00,South,190,4.0,13.0,86,-99.99,,,-99.99,,2013-02-05 03:01:00,
2013-02-04 18:11:00,37.0,33.0,-100.00,South,190,4.0,13.0,86,-99.99,,,-99.99,,2013-02-05 03:11:00,
2013-02-04 18:21:00,37.0,33.0,-100.00,SSE,155,6.0,12.0,85,-99.99,,,-99.99,,2013-02-05 03:21:00,
2013-02-04 18:31:00,37.0,33.0,-100.00,SSE,155,6.0,12.0,85,-99.99,,,-99.99,,2013-02-05 03:31:00,
2013-02-04 18:42:00,37.0,33.0,-100.00,SSE,155,6.0,12.0,85,-99.99,,,-99.99,,2013-02-05 03:42:00,
2013-02-04 18:51:00,37.0,33.0,-100.00,SSE,155,7.0,11.0,85,-99.99,,,-99.99,,2013-02-05 03:51:00,
2013-02-04 19:01:00,37.0,33.0,-100.00,SSE,155,7.0,11.0,85,-99.99,,,-99.99,,2013-02-05 04:01:00,
2013-02-04 19:11:00,37.0,33.0,-100.00,SSE,155,7.0,11.0,85,-99.99,,,-99.99,,2013-02-05 04:11:00,
2013-02-04 19:21:00,37.0,33.0,-100.00,SE,145,4.0,7.0,85,-99.99,,,-99.99,,2013-02-05 04:21:00,
2013-02-04 19:32:00,37.0,33.0,-100.00,SE,145,4.0,7.0,85,-99.99,,,-99.99,,2013-02-05 04:32:00,
2013-02-04 19:42:00,37.0,33.0,-100.00,SE,145,4.0,7.0,85,-99.99,,,-99.99,,2013-02-05 04:42:00,
2013-02-04 19:52:00,37.0,33.0,-100.00,SSE,160,7.0,10.0,85,-99.99,,,-99.99,,2013-02-05 04:52:00,
2013-02-04 20:02:00,37.0,33.0,-100.00,SSE,160,7.0,10.0,85,-99.99,,,-99.99,,2013-02-05 05:02:00,
2013-02-04 20:11:00,37.0,33.0,-100.00,SSE,160,7.0,10.0,85,-99.99,,,-99.99,,2013-02-05 05:11:00,
2013-02-04 20:21:00,37.0,33.0,-100.00,SSW,200,4.0,9.0,83,-99.99,,,-99.99,,2013-02-05 05:21:00,
2013-02-04 20:32:00,37.0,33.0,-100.00,SSW,200,4.0,9.0,83,-99.99,,,-99.99,,2013-02-05 05:32:00,
2013-02-04 20:42:00,37.0,33.0,-100.00,SSW,200,4.0,9.0,83,-99.99,,,-99.99,,2013-02-05 05:42:00,
2013-02-04 20:52:00,37.0,33.0,-100.00,WSW,250,0.0,3.0,84,-99.99,,,-99.99,,2013-02-05 05:52:00,
2013-02-04 21:01:00,37.0,33.0,-100.00,WSW,250,0.0,3.0,84,-99.99,,,-99.99,,2013-02-05 06:01:00,
2013-02-04 21:11:00,37.0,33.0,-100.00,WSW,250,0.0,3.0,84,-99.99,,,-99.99,,2013-02-05 06:11:00,
2013-02-04 21:21:00,37.0,33.0,-100.00,East,80,1.0,4.0,84,-99.99,,,-99.99,,2013-02-05 06:21:00,
2013-02-04 21:31:00,37.0,33.0,-100.00,East,80,1.0,4.0,84,-99.99,,,-99.99,,2013-02-05 06:31:00,
2013-02-04 21:41:00,37.0,33.0,-100.00,East,80,1.0,4.0,84,-99.99,,,-99.99,,2013-02-05 06:41:00,
2013-02-04 21:51:00,36.0,33.0,-100.00,SSE,150,1.0,3.0,86,-99.99,,,-99.99,,2013-02-05 06:51:00,
2013-02-04 22:01:00,36.0,33.0,-100.00,SSE,150,1.0,3.0,86,-99.99,,,-99.99,,2013-02-05 07:01:00,
2013-02-04 22:11:00,36.0,33.0,-100.00,SSE,150,1.0,3.0,86,-99.99,,,-99.99,,2013-02-05 07:11:00,
2013-02-04 22:22:00,38.0,33.0,-100.00,SE,135,11.0,15.0,83,-99.99,,,-99.99,,2013-02-05 07:22:00,
2013-02-04 22:31:00,38.0,33.0,-100.00,SE,135,11.0,15.0,83,-99.99,,,-99.99,,2013-02-05 07:31:00,
2013-02-04 22:41:00,38.0,33.0,-100.00,SE,135,11.0,15.0,83,-99.99,,,-99.99,,2013-02-05 07:41:00,
2013-02-04 22:51:00,37.0,33.0,-100.00,SSE,160,6.0,9.0,83,-99.99,,,-99.99,,2013-02-05 07:51:00,
2013-02-04 23:01:00,37.0,33.0,-100.00,SSE,160,6.0,9.0,83,-99.99,,,-99.99,,2013-02-05 08:01:00,
2013-02-04 23:11:00,37.0,33.0,-100.00,SSE,160,6.0,9.0,83,-99.99,,,-99.99,,2013-02-05 08:11:00,
2013-02-04 23:21:00,38.0,33.0,-100.00,South,190,3.0,9.0,80,-99.99,,,-99.99,,2013-02-05 08:21:00,
2013-02-04 23:31:00,38.0,33.0,-100.00,South,190,3.0,9.0,80,-99.99,,,-99.99,,2013-02-05 08:31:00,
2013-02-04 23:41:00,38.0,33.0,-100.00,South,190,3.0,9.0,80,-99.99,,,-99.99,,2013-02-05 08:41:00,
2013-02-04 23:52:00,37.0,33.0,-100.00,SSE,165,4.0,5.0,83,-99.99,,,-99.99,,2013-02-05 08:52:00,